Location: Caltech
(34.1382°N, 118.1253°W)
Time: 20:21:41
(UTC-08:00)

SO-67 - Visible Passes

Search period start: 23 February 2018 00:00
Search period end: 05 March 2018 00:00
Orbit: 396 x 398 km, 97.1° (Epoch: 23 February)

Date Brightness Start Highest point End Pass type
(mag) Time Alt. Az. Time Alt. Az. Time Alt. Az.
23 Feb ? 18:21:22 10° S 18:24:26 66° W 18:27:30 10° NNW visible
24 Feb ? 19:03:26 10° SW 19:05:13 14° W 19:07:00 10° WNW visible
25 Feb ? 18:11:01 10° SSE 18:14:06 80° ENE 18:17:12 10° N visible
26 Feb ? 18:52:26 10° SSW 18:54:49 20° W 18:57:12 10° NW visible
28 Feb ? 18:41:39 10° SSW 18:44:23 29° W 18:47:09 10° NW visible
02 Mar ? 18:30:59 10° S 18:33:56 44° W 18:36:55 10° NNW visible
03 Mar ? 19:14:03 10° WSW 19:14:42 10° W 19:15:20 10° W visible
04 Mar ? 18:20:24 10° S 18:23:28 70° W 18:26:33 10° NNW visible
